Location: Nairn
(57.5833°N, 3.8667°W)
Time: 03:06:31
(UTC+00:00)

Transit 2A - Pass Details

Date: 04 December 2020
Orbit: 598 x 960 km, 66.7° (Epoch: 20 January)

Event Time Altitude Azimuth Distance (km) Brightness Sun altitude
Rises 17:42:34 0° 229° (SW) 3,603 10.7 -15.7°
Reaches altitude 10° 17:45:10 10° 231° (SW) 2,633 9.8 -16.0°
Maximum altitude 17:51:21 80° 319° (NW) 902 6.3 -16.8°
Enters shadow 17:55:02 23° 44° (NE) 1,712 7.3 -17.3°
